• Join FlightAware (Why Join?)
  • Login
  • US Flag GB Flag 
11:00 EDT


 

Airport Tracker/Info


-or-


 

Live Flight TrackerFlight Track Log ✈ EJA922 ✈ 22-Jan-2014 ✈ KSWF - KTTN

Flight Track Log - Related Links

Times and Time Zones

All times are in EST time to prevent confusion due to time zone crossing. See the EJA922 flight status page for this flight to view local times or setup timezone preferences in your user account.

Time Position Orientation Groundspeed Altitude Reporting Facility
EST Latitude Longitude Course Direction KTS MPH feet Rate Location/Type
13:22 41.4833 -73.9667 225° Southwest 274 315 4,900  Level New York TRACON
13:23 41.4333 -74.0333 225° Southwest 273 314 5,000  Climbing New York TRACON
13:24 41.4833 -74.0833 323° Northwest 229 264 5,000  Level New York TRACON
13:25 41.5500 -74.0833 360° North 219 252 5,000 60 Level New York TRACON
13:26 41.6167 -74.0833 360° North 227 261 5,200 1,080 Climbing New York TRACON
13:27 41.6558 -74.0881 355° North 242 278 6,800 1,080 Climbing Boston Center
13:28 41.7094 -74.0236 42° Northeast 260 299 7,000 60 Climbing Boston Center
13:29 41.7606 -73.9589 43° Northeast 256 295 7,000 -60 Level Boston Center
13:30 41.8136 -73.8936 43° Northeast 244 281 6,900  Descending Boston Center
13:31 41.8625 -73.8328 43° Northeast 242 278 7,000  Climbing Boston Center
13:32 41.9133 -73.7689 43° Northeast 246 283 6,900  Descending Boston Center
13:32 41.9161 -73.7661 37° Northeast 250 288 7,000 240 Climbing Boston Center
13:32 41.9506 -73.7200 45° Northeast 250 288 7,100  Climbing Boston Center
13:33 41.9633 -73.7069 37° Northeast 246 283 7,000  Descending Boston Center
13:33 42.0006 -73.6589 44° Northeast 244 281 7,100  Climbing Boston Center
13:34 42.0139 -73.6433 41° Northeast 247 284 7,000  Descending Boston Center
13:35 42.0514 -73.5922 45° Northeast 254 292 7,100 -120 Climbing Boston Center
13:35 42.0644 -73.5831 28° Northeast 249 287 6,900 -120 Descending Boston Center
13:36 42.1142 -73.5900 354° North 237 273 7,000 60 Climbing Boston Center
13:36 42.1231 -73.5897 North 242 278 7,000  Level Boston Center
13:37 42.1764 -73.6136 342° North 230 265 7,000  Level Boston Center
13:37 42.1839 -73.6153 351° North 234 269 7,000 -240 Level Boston Center
13:38 42.2406 -73.6378 344° North 237 273 6,800 -300 Descending Boston Center
13:38 42.2481 -73.6392 352° North 237 273 6,700 -1,500 Descending Boston Center
13:39 42.3083 -73.6661 342° North 235 270 5,300 -1,680 Descending Boston Center
13:39 42.3228 -73.6686 353° North 236 272 5,000 -1,380 Descending Boston Center
13:40 42.3664 -73.6883 342° North 222 255 3,900 -1,380 Descending Boston Center
13:40 42.3817 -73.6928 348° North 222 255 3,600 -1,200 Descending Boston Center
13:41 42.4286 -73.7119 343° North 209 241 2,600 -1,320 Descending Boston Center
13:41 42.4383 -73.7150 347° North 216 249 2,300 -540 Descending Boston Center
13:42 42.4828 -73.7331 343° North 207 238 2,100 -240 Descending Boston Center
13:42 42.4922 -73.7364 345° North 201 231 2,100  Level Boston Center
13:43 42.5328 -73.7528 343° North 199 229 2,100  Level Boston Center
13:43 42.5472 -73.7578 346° North 201 231 2,100  Level Boston Center
13:44 42.5889 -73.7744 344° North 211 243 2,100  Level Boston Center
13:44 42.6078 -73.7822 343° North 209 241 2,100 -120 Level Boston Center
13:45 42.6558 -73.8003 345° North 184 212 2,000 -360 Descending Boston Center
13:46 42.6806 -73.8025 356° North 132 152 1,500 -600 Descending Boston Center
13:46 42.6942 -73.8019 North 142 163 1,400 -720 Descending Boston Center
13:47 42.7169 -73.8031 358° North 116 133 800 -840 Descending Boston Center
13:47 42.7283 -73.8033 359° North 129 148 600 -840 Descending Boston Center
13:49 42.7333 -73.8000 North  Level FlightAware Approximate
13:56 42.7491 -73.8020 North  Level Estimated
13:57 42.7491 -73.8020 North  Level Estimated
13:58 42.7491 -73.8020 North  Level Estimated